Weather History for KTIW - December, 2012

Change the Weather History Date:

Monday, December 24, 2012

  Actual Average Record
Temperature  
Mean Temperature 40 °F -  
Max Temperature 42 °F 43 °F 57 °F (2005)
Min Temperature 37 °F 36 °F 28 °F (2001)
Degree Days  
Heating Degree Days 26    
Moisture  
Dew Point 37 °F    
Average Humidity 87    
Maximum Humidity 93    
Minimum Humidity 70    
Precipitation  
Precipitation 0.02 in - - ()
Sea Level Pressure  
Sea Level Pressure 30.04 in    
Wind  
Wind Speed 6 mph (SSW)    
Max Wind Speed 12 mph    
Max Gust Speed -    
Visibility 10 miles    
Events Rain    
Averages and records for this station are not official NWS values.
T = Trace of Precipitation, MM = Missing Value Source: NWS Daily Summary

Daily Weather History Graph

Daily Weather History Graph

Search for Another Location

Airport or City:

Trip Planner

Search our weather history database for the weather conditions in past years. The results will help you decide how hot, cold, wet, or windy it might be!

Date:

Astronomy

Dec. 24, 2012 Rise Set
Actual Time 7:55 AM PST 4:24 PM PST
Civil Twilight 7:20 AM PST 5:00 PM PST
Nautical Twilight 6:41 AM PST 5:39 PM PST
Astronomical Twilight 6:03 AM PST 6:16 PM PST
Moon 2:00 PM PST (12/24) 4:34 AM PST (12/24)
Length of Visible Light 9h 40m
Length of Day
8h 28m
Waxing Gibbous, 89% of the Moon is Illuminated
Dec 24
Waxing Gibbous
Dec 28
Full
Jan 4
Last Quarter
Jan 11
New
Jan 18
First Quarter

Hourly Weather History & Observations

Time (PST) Temp. Windchill Dew Point Humidity Pressure Visibility Wind Dir Wind Speed Gust Speed Precip Events Conditions
12:00 AM 39.2 °F 33.0 °F 35.6 °F 87% 29.82 in 10.0 mi South 9.2 mph - N/A   Overcast
12:07 AM 39.2 °F 32.5 °F 35.6 °F 87% 29.83 in 10.0 mi SSW 10.4 mph - N/A   Overcast
12:14 AM 39.2 °F 32.0 °F 35.6 °F 87% 29.83 in 10.0 mi SSW 11.5 mph - N/A   Overcast
12:53 AM 39.9 °F 32.9 °F 36.0 °F 86% 29.86 in 10.0 mi SSW 11.5 mph - N/A   Overcast
1:53 AM 39.9 °F 34.5 °F 36.0 °F 86% 29.88 in 10.0 mi SSW 8.1 mph - N/A   Overcast
2:35 AM 39.2 °F 34.2 °F 35.6 °F 87% 29.90 in 10.0 mi SSW 6.9 mph - N/A   Overcast
2:53 AM 39.9 °F 34.5 °F 36.0 °F 86% 29.91 in 10.0 mi SSW 8.1 mph - N/A   Overcast
3:02 AM 39.2 °F 33.6 °F 37.4 °F 93% 29.91 in 10.0 mi South 8.1 mph - N/A   Overcast
3:25 AM 39.2 °F 33.6 °F 37.4 °F 93% 29.92 in 10.0 mi South 8.1 mph - N/A   Overcast
3:53 AM 39.9 °F 35.1 °F 37.0 °F 89% 29.94 in 10.0 mi South 6.9 mph - N/A   Overcast
4:33 AM 39.2 °F 35.9 °F 37.4 °F 93% 29.95 in 10.0 mi South 4.6 mph - N/A   Overcast
4:48 AM 39.2 °F 34.2 °F 37.4 °F 93% 29.96 in 10.0 mi South 6.9 mph - N/A   Overcast
4:53 AM 39.9 °F 35.1 °F 36.0 °F 86% 29.97 in 10.0 mi SSW 6.9 mph - N/A   Overcast
5:51 AM 39.2 °F 35.9 °F 37.4 °F 93% 29.99 in 10.0 mi South 4.6 mph - N/A   Overcast
5:53 AM 39.9 °F 35.8 °F 37.0 °F 89% 30.00 in 10.0 mi SSW 5.8 mph - N/A   Overcast
6:34 AM 39.2 °F 35.9 °F 37.4 °F 93% 30.01 in 10.0 mi SSW 4.6 mph - N/A   Overcast
6:53 AM 39.0 °F - 37.0 °F 93% 30.03 in 10.0 mi Calm Calm - N/A   Overcast
7:14 AM 39.2 °F 35.9 °F 35.6 °F 87% 30.03 in 10.0 mi NNW 4.6 mph - N/A   Overcast
7:53 AM 37.9 °F - 36.0 °F 93% 30.06 in 10.0 mi Calm Calm - N/A   Overcast
8:01 AM 39.2 °F - 35.6 °F 87% 30.05 in 10.0 mi Calm Calm - N/A   Overcast
8:53 AM 39.9 °F - 37.0 °F 89% 30.09 in 10.0 mi Calm Calm - N/A   Mostly Cloudy
9:53 AM 39.0 °F 36.8 °F 36.0 °F 89% 30.13 in 10.0 mi WSW 3.5 mph - N/A   Overcast
10:53 AM 37.9 °F 32.7 °F 35.1 °F 89% 30.15 in 10.0 mi WSW 6.9 mph - N/A   Overcast
11:53 AM 39.9 °F 36.7 °F 36.0 °F 86% 30.15 in 10.0 mi SW 4.6 mph - N/A   Overcast
12:53 PM 39.9 °F - 37.9 °F 93% 30.16 in 8.0 mi Calm Calm - 0.00 in   Overcast
1:36 PM 42.8 °F 40.1 °F 39.2 °F 87% 30.15 in 10.0 mi South 4.6 mph - 0.00 in   Overcast
1:53 PM 42.1 °F 37.7 °F 39.0 °F 89% 30.17 in 10.0 mi SSW 6.9 mph - 0.00 in   Overcast
2:53 PM 42.1 °F 36.1 °F 37.9 °F 85% 30.17 in 9.0 mi South 10.4 mph - N/A   Overcast
3:53 PM 42.1 °F 39.2 °F 39.0 °F 89% 30.17 in 6.0 mi SSW 4.6 mph - 0.01 in Rain Light Rain
4:00 PM 42.8 °F 40.1 °F 39.2 °F 87% 30.16 in 6.0 mi South 4.6 mph - 0.00 in Rain Light Rain
4:18 PM 42.8 °F 41.1 °F 39.2 °F 87% 30.16 in 10.0 mi South 3.5 mph - 0.01 in Rain Light Rain
4:23 PM 42.8 °F 41.1 °F 39.2 °F 87% 30.16 in 10.0 mi SSW 3.5 mph - 0.01 in Rain Light Rain
4:53 PM 42.1 °F 40.2 °F 37.9 °F 85% 30.17 in 10.0 mi South 3.5 mph - 0.01 in Rain Light Rain
5:53 PM 42.1 °F 40.2 °F 37.9 °F 85% 30.16 in 10.0 mi ESE 3.5 mph - 0.00 in   Overcast
6:53 PM 39.9 °F 37.8 °F 36.0 °F 86% 30.14 in 10.0 mi South 3.5 mph - N/A   Overcast
7:00 PM 39.2 °F - 35.6 °F 87% 30.13 in 10.0 mi Calm Calm - N/A   Mostly Cloudy
7:53 PM 41.0 °F - 36.0 °F 82% 30.12 in 10.0 mi Calm Calm - N/A   Scattered Clouds
8:53 PM 41.0 °F 38.0 °F 33.1 °F 73% 30.12 in 10.0 mi South 4.6 mph - N/A   Clear
9:53 PM 39.9 °F 37.8 °F 32.0 °F 73% 30.11 in 10.0 mi SSE 3.5 mph - N/A   Clear
10:53 PM 41.0 °F 38.0 °F 32.0 °F 70% 30.08 in 10.0 mi SE 4.6 mph - N/A   Clear
11:53 PM 39.9 °F - 33.1 °F 77% 30.05 in 10.0 mi Calm Calm - N/A   Scattered Clouds